Вернуться в каталог

STARLINK-30360

АктивенСвязьVLEO
NORAD 57776·PAYLOAD·🇺🇸 United States

Запущен Sep 4, 2023 с Cape Canaveral Space Force Station

Loading…

Ближайшие Пролёты (ближайшие 24 часа)

TLE

СвежийSource: CelesTrak SupGP

Эпоха: Sep 14, 2026, 20:46 UTC

1 57776C 23134F   26257.86576389  .00028075  00000+0  10168-2 0  2575
2 57776  43.0030 206.4099 0001346 261.6578 165.6965 15.27567053    13

Отслеживайте STARLINK-30360 в реальном времени с AllMySat

Download on the App Store